Location: Beadle
(51.4667°N, 109.0000°W)
Time: 10:32:42
(UTC+00:00)

deb Explorer IX - Pass Details

Date: 03 June 2022
Orbit: 535 x 1068 km, 38.8° (Epoch: 04 July)

Event Time Altitude Azimuth Distance (km) Brightness Sun altitude
Rises 20:11:12 0° 262° (W) 3,816 ? 58.9°
Reaches altitude 10° 20:15:20 10° 241° (WSW) 2,798 ? 58.6°
Maximum altitude 20:18:47 15° 210° (SSW) 2,399 ? 58.4°
Drops below altitude 10° 20:22:06 10° 179° (S) 2,636 ? 58.1°
Sets 20:25:48 0° 156° (SSE) 3,462 ? 57.8°
